TimeEST,TemperatureF,Dew PointF,Humidity,Sea Level PressureIn,VisibilityMPH,Wind Direction,Wind SpeedMPH,Gust SpeedMPH,PrecipitationIn,Events,Conditions,WindDirDegrees,DateUTC
12:16 AM,35.2,32.9,91,29.99,3.0,SSW,17.3,-,N/A,,Overcast,200,2012-12-03 05:16:00
12:36 AM,35.4,33.1,91,30.00,2.5,South,19.6,23.0,N/A,,Overcast,190,2012-12-03 05:36:00
12:55 AM,35.6,33.3,91,29.99,3.0,SSW,18.4,23.0,N/A,,Overcast,210,2012-12-03 05:55:00
1:16 AM,35.6,33.4,92,29.99,2.0,SSW,17.3,24.2,N/A,,Overcast,200,2012-12-03 06:16:00
1:36 AM,35.6,33.4,92,29.98,1.8,SSW,15.0,21.9,N/A,,Overcast,200,2012-12-03 06:36:00
1:55 AM,35.6,33.6,92,29.97,1.5,South,15.0,-,N/A,,Overcast,190,2012-12-03 06:55:00
2:16 AM,35.6,33.8,93,29.97,1.8,South,18.4,23.0,N/A,,Overcast,190,2012-12-03 07:16:00
2:36 AM,35.8,34.0,93,29.97,2.0,SSW,16.1,21.9,N/A,,Overcast,200,2012-12-03 07:36:00
2:56 AM,35.8,34.0,93,29.96,2.0,SSW,16.1,21.9,N/A,,Overcast,200,2012-12-03 07:56:00
3:16 AM,35.8,34.0,93,29.97,2.0,SSW,20.7,26.5,N/A,,Overcast,200,2012-12-03 08:16:00
3:36 AM,36.0,34.2,93,29.97,1.8,SSW,18.4,25.3,N/A,,Overcast,210,2012-12-03 08:36:00
3:56 AM,36.0,34.2,93,29.95,1.5,SSW,16.1,23.0,N/A,,Overcast,200,2012-12-03 08:56:00
4:16 AM,36.1,34.3,93,29.95,1.0,SSW,16.1,-,N/A,,Overcast,200,2012-12-03 09:16:00
4:35 AM,36.1,34.3,93,29.93,0.8,South,16.1,-,N/A,,Overcast,190,2012-12-03 09:35:00
4:56 AM,36.1,34.3,93,29.93,0.8,SSW,16.1,-,N/A,,Overcast,200,2012-12-03 09:56:00
5:16 AM,36.5,34.7,93,29.92,0.8,SSW,13.8,-,N/A,,Overcast,200,2012-12-03 10:16:00
5:35 AM,36.5,34.7,93,29.92,0.8,SSW,16.1,21.9,N/A,,Overcast,200,2012-12-03 10:35:00
5:56 AM,36.5,34.7,93,29.91,0.5,South,19.6,27.6,N/A,Fog,Fog,190,2012-12-03 10:56:00
6:55 AM,37.4,35.6,93,29.89,0.5,South,17.3,27.6,N/A,Fog,Fog,190,2012-12-03 11:55:00
7:50 AM,37.4,35.6,93,29.89,0.5,South,16.1,21.9,N/A,Fog,Fog,190,2012-12-03 12:50:00
8:55 AM,39.2,37.4,93,29.85,0.5,South,15.0,-,N/A,Fog,Fog,180,2012-12-03 13:55:00
9:50 AM,39.2,37.4,93,29.84,0.2,South,13.8,-,N/A,Fog,Fog,190,2012-12-03 14:50:00
10:55 AM,41.0,39.2,93,29.81,0.2,South,19.6,24.2,N/A,Fog,Fog,180,2012-12-03 15:55:00
11:50 AM,42.8,41.0,93,29.77,0.2,South,19.6,23.0,N/A,Fog,Fog,180,2012-12-03 16:50:00
12:50 PM,44.6,42.8,93,29.73,0.2,South,17.3,24.2,N/A,Fog,Fog,180,2012-12-03 17:50:00
1:50 PM,46.4,44.6,93,29.68,0.2,South,16.1,24.2,N/A,Fog,Fog,170,2012-12-03 18:50:00
2:50 PM,46.4,44.6,93,29.64,0.2,South,16.1,19.6,N/A,,Overcast,180,2012-12-03 19:50:00
3:50 PM,48.2,46.4,93,29.62,0.5,South,17.3,23.0,N/A,Fog,Fog,180,2012-12-03 20:50:00
4:10 PM,48.2,46.4,93,29.61,1.0,South,16.1,21.9,N/A,Rain,Light Rain,180,2012-12-03 21:10:00
4:35 PM,48.2,46.4,93,29.60,2.0,South,17.3,-,N/A,,Light Drizzle,170,2012-12-03 21:35:00
4:55 PM,50.0,48.2,94,29.59,3.0,South,15.0,23.0,N/A,,Overcast,170,2012-12-03 21:55:00
5:15 PM,50.0,48.2,94,29.58,2.0,South,13.8,18.4,N/A,,Overcast,180,2012-12-03 22:15:00
5:55 PM,51.8,48.2,88,29.58,2.0,South,16.1,20.7,N/A,,Overcast,190,2012-12-03 22:55:00
6:33 PM,51.8,50.0,94,29.57,4.0,SSW,18.4,26.5,N/A,,Light Drizzle,200,2012-12-03 23:33:00
6:50 PM,51.8,50.0,94,29.57,4.0,South,19.6,25.3,N/A,,Overcast,190,2012-12-03 23:50:00
7:55 PM,53.6,51.8,94,29.55,2.0,SSW,15.0,21.9,N/A,,Overcast,210,2012-12-04 00:55:00
8:55 PM,53.6,51.8,94,29.55,7.0,SW,11.5,-,N/A,,Overcast,220,2012-12-04 01:55:00
9:50 PM,51.8,48.2,88,29.59,10.0,West,13.8,24.2,N/A,,Mostly Cloudy,270,2012-12-04 02:50:00
10:16 PM,50.2,44.2,80,29.60,10.0,West,10.4,21.9,N/A,,Scattered Clouds,270,2012-12-04 03:16:00
10:35 PM,49.1,43.5,81,29.62,10.0,West,10.4,16.1,N/A,,Clear,260,2012-12-04 03:35:00
10:56 PM,48.2,42.8,82,29.63,10.0,West,11.5,17.3,N/A,,Scattered Clouds,270,2012-12-04 03:56:00
11:15 PM,47.1,41.9,82,29.64,10.0,West,11.5,-,N/A,,Scattered Clouds,270,2012-12-04 04:15:00
11:36 PM,46.0,40.5,81,29.64,10.0,West,8.1,-,N/A,,Clear,260,2012-12-04 04:36:00
11:56 PM,45.0,39.4,81,29.65,10.0,WSW,8.1,-,N/A,,Clear,250,2012-12-04 04:56:00